Location: Unspecified
(22.6800°N, 112.2000°E)
Time: 10:50:32
(UTC+08:00)

S-56A Canister/Altair - Pass Details

Date: 02 August 2021
Orbit: 632 x 2500 km, 38.9° (Epoch: 27 September)

Event Time Altitude Azimuth Distance (km) Brightness Sun altitude
Rises 12:31:28 0° 218° (SW) 4,413 11.5 84.8°
Reaches altitude 10° 12:34:06 10° 214° (SW) 3,661 11.2 85.0°
Maximum altitude 12:43:50 60° 137° (SE) 2,201 11.2 84.8°
Drops below altitude 10° 12:57:33 10° 62° (ENE) 5,038 11.8 83.2°
Sets 13:01:50 0° 59° (ENE) 6,143 12.1 82.4°
